Simultaneous Nadir Overpasses (SNOs) Predictions

Prediction of SNOs between AQUA and METOP-B Satellite Orbit:

Table of predicted SNOs for the next 14.0 days since TLE Epoch: 4/12/2019
Index Date (AQUA) Time (AQUA) Lat,Lon (AQUA) SZA (AQUA ) Date (METOP-B) Time (METOP-B) Lat,Lon (METOP-B) SZA (METOP-B ) Distance(km) Time Diff (sec)
1 04/13/2019 13:03:00 -73.88, 158.49 115.18 04/13/2019 13:02:30 -73.86, 158.50 115.19 2.30 30
2 04/13/2019 13:52:28 73.91, -33.93 64.84 04/13/2019 13:53:09 73.92, -34.04 64.85 3.50 41
3 04/16/2019 08:37:13 -73.89,-135.09 116.18 04/16/2019 08:36:53 -73.89,-135.02 116.18 2.02 20
4 04/16/2019 09:26:41 73.92, 32.49 63.84 04/16/2019 09:27:32 73.94, 32.43 63.86 3.30 51
5 04/19/2019 03:21:53 73.52, 124.52 62.44 04/19/2019 03:20:43 73.49, 123.11 62.47 44.93 70
6 04/19/2019 04:11:25 -73.86, -68.57 117.21 04/19/2019 04:11:17 -73.87, -68.67 117.19 3.31 8
7 04/19/2019 05:00:54 73.94, 98.90 62.86 04/19/2019 05:01:55 73.97, 98.89 62.89 3.52 61
8 04/21/2019 22:56:10 73.80,-169.64 61.78 04/21/2019 22:54:59 73.81,-169.74 61.80 2.94 71
9 04/21/2019 23:45:37 -73.89, -2.18 118.15 04/21/2019 23:45:39 -73.90, -2.19 118.14 1.86 2
10 04/22/2019 00:35:06 73.96, 165.29 61.92 04/22/2019 00:36:18 73.94, 165.24 61.89 2.67 72
11 04/24/2019 18:30:23 73.83,-103.27 60.87 04/24/2019 18:29:22 73.83,-103.28 60.87 0.46 61
12 04/24/2019 19:19:50 -73.92, 64.20 119.06 04/24/2019 19:20:02 -73.93, 64.28 119.05 2.81 12




NCC Satellite Simultaneous Nadir Overpasses (SNOs) Prediction Service
